• In Portugal
  • List of Countries
  • For 7 days
  • Water Temperature
  • Satellite Maps
  • Weather Map
  • Weather Widgets
  • user-avatar
    Login

    Hourly Weather Trypolis

    Today, 14 August, Tuesday

    Time Temperature Precipitation Wind Pressure Humidity
    00:00 +29°C° 0 mm 5 mps 753 mmHg 60%
    01:00 +28°C° 0 mm 5 mps 752 mmHg 61%
    02:00 +28°C° 0 mm 5 mps 752 mmHg 60%
    03:00 +28°C° 0 mm 5 mps 752 mmHg 61%
    04:00 +28°C° 0 mm 5 mps 752 mmHg 63%
    05:00 +28°C° 0 mm 5 mps 752 mmHg 65%
    06:00 +29°C° 0 mm 5 mps 752 mmHg 59%
    07:00 +32°C° 0 mm 5 mps 753 mmHg 54%
    08:00 +33°C° 0 mm 5 mps 753 mmHg 48%
    09:00 +34°C° 0 mm 6 mps 753 mmHg 46%
    10:00 +35°C° 0 mm 6 mps 753 mmHg 43%
    11:00 +36°C° 0 mm 6 mps 753 mmHg 40%
    12:00 +36°C° 0 mm 6 mps 753 mmHg 41%
    13:00 +36°C° 0 mm 6 mps 752 mmHg 42%
    14:00 +36°C° 0 mm 6 mps 752 mmHg 43%
    15:00 +36°C° 0 mm 5 mps 752 mmHg 46%
    16:00 +35°C° 0 mm 5 mps 752 mmHg 48%
    17:00 +34°C° 0 mm 5 mps 752 mmHg 51%
    18:00 +33°C° 0 mm 4 mps 752 mmHg 56%
    19:00 +32°C° 0 mm 4 mps 752 mmHg 60%
    20:00 +32°C° 0 mm 4 mps 752 mmHg 64%
    21:00 +30°C° 0 mm 4 mps 753 mmHg 63%
    22:00 +30°C° 0 mm 4 mps 753 mmHg 62%
    23:00 +29°C° 0 mm 4 mps 753 mmHg 61%

    Tomorrow, 15 August, Wednesday

    Time Temperature Precipitation Wind Pressure Humidity
    00:00 +29°C° 0 mm 4 mps 753 mmHg 60%
    01:00 +29°C° 0 mm 3 mps 753 mmHg 59%
    02:00 +28°C° 0 mm 3 mps 752 mmHg 57%
    03:00 +28°C° 0 mm 3 mps 752 mmHg 56%
    04:00 +28°C° 0 mm 3 mps 752 mmHg 54%
    05:00 +28°C° 0 mm 3 mps 752 mmHg 53%
    06:00 +29°C° 0 mm 4 mps 753 mmHg 46%
    07:00 +32°C° 0 mm 4 mps 753 mmHg 40%
    08:00 +34°C° 0 mm 4 mps 753 mmHg 33%
    09:00 +35°C° 0 mm 4 mps 753 mmHg 33%
    10:00 +36°C° 0 mm 5 mps 753 mmHg 33%
    11:00 +37°C° 0 mm 5 mps 753 mmHg 33%
    12:00 +37°C° 0 mm 5 mps 753 mmHg 36%
    13:00 +37°C° 0 mm 5 mps 753 mmHg 39%
    14:00 +37°C° 0 mm 4 mps 752 mmHg 41%
    15:00 +36°C° 0 mm 4 mps 752 mmHg 45%
    16:00 +36°C° 0 mm 4 mps 752 mmHg 50%
    17:00 +35°C° 0 mm 3 mps 752 mmHg 54%
    18:00 +34°C° 0 mm 3 mps 752 mmHg 59%
    19:00 +33°C° 0 mm 3 mps 753 mmHg 65%
    20:00 +31°C° 0 mm 3 mps 753 mmHg 71%
    21:00 +31°C° 0 mm 2 mps 753 mmHg 71%
    22:00 +30°C° 0 mm 2 mps 753 mmHg 72%
    23:00 +30°C° 0 mm 2 mps 754 mmHg 72%

    Day after tomorrow, 16 August, Thursday

    Time Temperature Precipitation Wind Pressure Humidity
    00:00 +30°C° 0 mm 2 mps 753 mmHg 72%
    01:00 +29°C° 0 mm 2 mps 753 mmHg 72%
    02:00 +29°C° 0 mm 2 mps 753 mmHg 72%
    03:00 +29°C° 0 mm 2 mps 753 mmHg 71%
    04:00 +28°C° 0 mm 2 mps 753 mmHg 71%
    05:00 +28°C° 0 mm 3 mps 753 mmHg 70%
    06:00 +30°C° 0 mm 3 mps 754 mmHg 60%
    07:00 +31°C° 0 mm 3 mps 754 mmHg 51%
    08:00 +34°C° 0 mm 3 mps 754 mmHg 41%
    09:00 +35°C° 0 mm 4 mps 754 mmHg 39%
    10:00 +36°C° 0 mm 4 mps 754 mmHg 36%
    11:00 +37°C° 0 mm 4 mps 754 mmHg 33%
    12:00 +37°C° 0 mm 4 mps 754 mmHg 36%
    13:00 +37°C° 0 mm 4 mps 754 mmHg 38%
    14:00 +37°C° 0 mm 4 mps 753 mmHg 41%
    15:00 +37°C° 0 mm 4 mps 753 mmHg 45%
    16:00 +36°C° 0 mm 4 mps 753 mmHg 49%
    17:00 +35°C° 0 mm 3 mps 753 mmHg 53%
    18:00 +34°C° 0 mm 3 mps 754 mmHg 58%
    19:00 +32°C° 0 mm 2 mps 754 mmHg 63%
    20:00 +31°C° 0 mm 2 mps 754 mmHg 69%
    21:00 +31°C° 0 mm 2 mps 754 mmHg 69%
    22:00 +31°C° 0 mm 2 mps 754 mmHg 69%
    23:00 +30°C° 0 mm 2 mps 754 mmHg 70%

    17 August, Friday

    Time Temperature Precipitation Wind Pressure Humidity
    00:00 +30°C° 0 mm 2 mps 754 mmHg 69%
    01:00 +29°C° 0 mm 2 mps 754 mmHg 68%
    02:00 +29°C° 0 mm 3 mps 754 mmHg 68%
    03:00 +29°C° 0 mm 3 mps 754 mmHg 66%
    04:00 +28°C° 0 mm 3 mps 754 mmHg 64%
    05:00 +28°C° 0 mm 3 mps 754 mmHg 62%
    06:00 +30°C° 0 mm 3 mps 754 mmHg 53%
    07:00 +33°C° 0 mm 3 mps 755 mmHg 45%
    08:00 +34°C° 0 mm 4 mps 755 mmHg 37%
    09:00 +35°C° 0 mm 4 mps 755 mmHg 36%
    10:00 +36°C° 0 mm 4 mps 754 mmHg 35%
    11:00 +37°C° 0 mm 5 mps 754 mmHg 34%
    12:00 +37°C° 0 mm 5 mps 754 mmHg 36%
    13:00 +37°C° 0 mm 5 mps 754 mmHg 39%
    14:00 +37°C° 0 mm 5 mps 753 mmHg 41%
    15:00 +37°C° 0 mm 5 mps 753 mmHg 45%
    16:00 +36°C° 0 mm 4 mps 753 mmHg 48%
    17:00 +35°C° 0 mm 4 mps 753 mmHg 51%
    18:00 +34°C° 0 mm 4 mps 753 mmHg 55%
    19:00 +33°C° 0 mm 4 mps 753 mmHg 60%
    20:00 +31°C° 0 mm 3 mps 754 mmHg 64%
    21:00 +31°C° 0 mm 3 mps 754 mmHg 62%
    22:00 +30°C° 0 mm 4 mps 753 mmHg 60%
    23:00 +30°C° 0 mm 4 mps 753 mmHg 58%

    18 August, Saturday

    Time Temperature Precipitation Wind Pressure Humidity
    00:00 +29°C° 0 mm 4 mps 753 mmHg 57%
    01:00 +29°C° 0 mm 4 mps 753 mmHg 56%
    02:00 +29°C° 0 mm 4 mps 753 mmHg 55%
    03:00 +28°C° 0 mm 4 mps 753 mmHg 54%
    04:00 +28°C° 0 mm 4 mps 753 mmHg 53%
    05:00 +28°C° 0 mm 4 mps 753 mmHg 53%
    06:00 +30°C° 0 mm 5 mps 753 mmHg 48%
    07:00 +32°C° 0 mm 5 mps 753 mmHg 42%
    08:00 +34°C° 0 mm 5 mps 753 mmHg 37%
    09:00 +35°C° 0 mm 6 mps 753 mmHg 36%
    10:00 +36°C° 0 mm 6 mps 753 mmHg 35%
    11:00 +38°C° 0 mm 6 mps 752 mmHg 34%
    12:00 +38°C° 0 mm 6 mps 752 mmHg 35%
    13:00 +38°C° 0 mm 6 mps 752 mmHg 37%
    14:00 +38°C° 0 mm 6 mps 751 mmHg 39%
    15:00 +36°C° 0 mm 5 mps 751 mmHg 43%
    16:00 +35°C° 0 mm 5 mps 751 mmHg 47%
    17:00 +35°C° 0 mm 5 mps 751 mmHg 52%
    18:00 +34°C° 0 mm 5 mps 751 mmHg 56%
    19:00 +33°C° 0 mm 4 mps 752 mmHg 61%
    20:00 +32°C° 0 mm 4 mps 752 mmHg 65%
    21:00 +30°C° 0 mm 4 mps 752 mmHg 64%
    22:00 +30°C° 0 mm 4 mps 752 mmHg 63%
    23:00 +29°C° 0 mm 4 mps 752 mmHg 61%

    19 August, Sunday

    Time Temperature Precipitation Wind Pressure Humidity
    00:00 +29°C° 0 mm 4 mps 752 mmHg 61%
    01:00 +28°C° 0 mm 4 mps 752 mmHg 60%
    02:00 +28°C° 0 mm 4 mps 751 mmHg 60%
    03:00 +28°C° 0 mm 4 mps 751 mmHg 60%
    04:00 +28°C° 0 mm 4 mps 752 mmHg 60%
    05:00 +27°C° 0 mm 4 mps 752 mmHg 59%
    06:00 +29°C° 0 mm 4 mps 752 mmHg 53%
    07:00 +32°C° 0 mm 4 mps 752 mmHg 46%
    08:00 +33°C° 0 mm 5 mps 752 mmHg 40%
    09:00 +34°C° 0 mm 5 mps 752 mmHg 39%
    10:00 +35°C° 0 mm 5 mps 751 mmHg 38%
    11:00 +36°C° 0 mm 5 mps 751 mmHg 37%
    12:00 +36°C° 0 mm 5 mps 751 mmHg 39%
    13:00 +36°C° 0 mm 5 mps 751 mmHg 42%
    14:00 +36°C° 0 mm 5 mps 750 mmHg 45%
    15:00 +36°C° 0 mm 5 mps 750 mmHg 50%
    16:00 +35°C° 0 mm 5 mps 750 mmHg 54%
    17:00 +34°C° 0 mm 5 mps 750 mmHg 59%
    18:00 +34°C° 0 mm 4 mps 751 mmHg 63%
    19:00 +33°C° 0 mm 4 mps 751 mmHg 68%
    20:00 +32°C° 0 mm 4 mps 751 mmHg 72%
    21:00 +30°C° 0 mm 4 mps 752 mmHg 72%
    22:00 +30°C° 0 mm 3 mps 752 mmHg 72%
    23:00 +30°C° 0 mm 3 mps 752 mmHg 72%
    Show more